Vertical_Velocity
4 0 1 -1 -2 -1 -0 -1 -0 -0 0 -0 1 1 2 1 1 1 2 1 1 0 -1 -1 0 0 -1 -1 -0 1 1 0 -1 -2 -0 -1 -2 -2 -1 -2 1 0 -1
-0 -1 1 -1 -1 1 1 2 -0 -2 -0 1 1 -2 -1 -1 -1 -1 -1 0 -1 -1 -1 -0 0 0 -0 -1 -2 -2 -2 -0 0 1 0 -1 0 1 0 0 -1 -0 1
2 1 -3 1 1 -1 0 1 -0 -1 -1 -2 -2 -1 1 -1 1 1 1 1 -1 -1 -1 -1 -1 -1 -1 -0 -0 -0 -0 0 1 1 1 3 1 2 -0 2 0 3 -1
-2 -1 1 -1 1 1 -2 1 -1 -1 -0 -1 -0 0 3 2 1 1 1 2 0 0 1 -0 -1 -0 -1 -2 -2 -1 -1 -2 -1 -0 0 0 -1 -1 1 3 -2 -2 2
2 -1 -0 2 3 3 2 3 2 1 -0 1 1 1 0 0 -1 -0 1 -0 0 0 0 0 -1 -0 -0 0 -0 -1 -0 0 -1 -1 -2 -1 -1 -1 -3 -2 4 9 9
-1 -2 -0 1 1 -0 1 1 2 1 0 0 1 1 1 0 -0 2 1 1 1 -0 -1 -0 -0 -1 -1 -1 -0 0 -0 -1 0 1 2 1 -0 -1 -4 -7 -2 -10 -0
-1 0 -2 -0 3 1 3 3 2 2 1 -0 1 2 1 0 1 -0 -0 -0 -0 -0 0 -0 -1 -0 1 -1 -1 -0 1 1 1 0 0 -1 -1 -1 -3 -7 -10 -17 -3
-3 -2 2 3 4 0 2 2 3 3 2 2 1 2 0 0 1 1 -0 0 -0 -1 -1 -1 -1 -1 -1 -0 -1 -0 -1 1 1 -0 0 -1 -2 -3 -3 -4 -3 -4 -5
-1 -6 0 -1 0 0 3 4 2 4 1 1 1 0 0 2 3 2 1 0 -0 1 -0 -1 -1 -2 -2 -3 -1 -1 -0 -2 -1 -1 -1 -1 -2 -3 -3 -2 -3 -6 -9
-3 -4 -8 -3 -2 -3 -2 -0 2 2 2 1 1 0 -0 0 0 -0 -1 -2 -1 -1 -0 -1 -3 1 -1 -6 -3 -5 -1 -1 -1 -0 -1 -1 -2 -1 -1 -1 -2 -3 -5
2 1 -1 -1 -1 -2 -1 1 1 3 2 2 0 2 0 -0 0 -0 -1 2 1 1 -3 9 -5 -3 12 -0 4 -7 -0 -1 0 0 -1 -2 -2 -1 -1 -2 -3 -3 -5
1 6 6 4 3 2 -0 0 1 2 4 3 2 0 2 1 2 3 1 3 -0 -4 -6 7 -9 4 -4 5 -5 -2 0 0 0 -2 -1 -1 -0 -2 -2 -2 -1 -1 -2
5 1 -1 -0 3 3 2 3 2 2 3 0 2 1 2 1 0 -0 -1 0 1 13 -3 5 -7 3 4 -2 -5 -0 1 2 1 -0 -3 -1 0 -1 -2 -3 -3 -1 1
7 5 5 3 4 5 4 2 1 2 3 3 1 1 3 2 9 -1 5 0 -1 8 -5 -3 8 0 -1 -8 -1 -0 -0 -3 -2 -2 -1 -1 -1 0 -1 -1 -1 1 0
-1 -1 1 4 1 1 1 2 2 4 3 -0 2 2 2 3 -2 5 0 5 24 2 5 6 -4 2 -1 -0 1 0 -1 -2 -3 -2 -1 -1 -4 -5 -5 -3 0 -5 0
-2 0 4 -1 -0 2 3 4 1 -0 1 2 2 1 1 1 5 3 -6 -4 -3 15 -7 3 -2 1 0 3 1 -1 -1 -0 -2 -2 -1 -1 -2 -1 -0 1 -2 -3 -9
3 6 4 5 6 4 5 2 3 2 4 2 1 3 2 2 2 1 6 1 1 -4 -6 5 2 1 2 -0 -0 -1 -3 -3 -1 -0 1 -0 -4 -2 1 4 0 2 3
2 -1 1 -1 -1 3 -3 0 2 5 3 4 3 1 1 3 2 2 -0 -4 -2 6 2 -0 1 1 -1 -2 0 -2 -0 -1 -2 -2 -3 -3 -0 -3 -4 -4 -2 -1 -1
8 8 6 6 6 1 4 0 0 2 3 2 3 3 2 2 1 -1 4 7 2 0 2 1 1 -0 -1 -0 -1 0 0 1 -1 -2 -5 -4 -1 -2 0 -4 -4 -1 4
-2 2 2 6 2 2 3 3 3 1 1 2 3 2 -1 -0 2 1 -1 0 -0 -1 -1 -0 0 0 -0 -1 -2 -2 1 4 1 -4 -3 -3 -2 1 -1 -1 -7 -6 -4
-4 3 6 4 4 2 1 1 2 2 3 -0 -0 0 3 3 2 1 3 3 2 1 -1 -2 -1 0 -4 -4 -2 -2 -2 -2 0 -0 1 -0 -1 0 -1 -3 -6 -8 -16
1 4 -1 2 8 4 3 1 3 3 2 3 2 3 2 3 3 3 3 3 2 1 1 2 0 -5 -3 -2 -1 -1 -2 -3 -3 -1 3 2 1 1 -1 -1 -4 -3 -5
0 1 8 7 2 2 1 4 3 3 2 1 2 3 3 3 3 4 2 1 1 2 1 -3 -4 -1 -4 -4 -2 -2 -4 -4 -3 -4 -3 -2 -3 -2 -1 -0 -2 -4 -6
3 6 4 2 4 5 6 3 2 2 1 2 3 3 3 3 2 2 2 1 1 2 -7 -1 -0 -1 -1 -1 1 0 1 1 -0 -3 0 1 -3 -4 -5 -2 -5 -3 -3
7 7 5 4 3 5 2 4 3 2 2 1 2 3 4 4 2 3 2 3 -0 -5 -2 -0 -0 1 -1 -0 -2 -1 -4 1 -2 1 4 -2 -1 -4 -3 3 -2 1 -1
-0 5 6 6 6 6 6 5 3 4 5 5 4 4 5 4 2 2 3 -5 -1 -1 -6 -3 1 -1 2 -3 2 0 -2 -1 -2 -3 -2 -2 -4 -5 -3 -8 -2 1 3
Height
3132 3135 3139 3142 3145 3147 3150 3152 3154 3156 3159 3161 3163 3165 3167 3168 3170 3171 3173 3174 3175 3175 3176 3177 3178 3178 3178 3178 3177 3177 3177 3177 3176 3174 3174 3173 3172 3171 3170 3168 3168 3166 3164
3128 3131 3135 3138 3141 3145 3147 3149 3152 3154 3157 3159 3160 3162 3164 3166 3168 3169 3171 3172 3173 3173 3174 3175 3175 3175 3175 3175 3174 3174 3174 3173 3172 3172 3170 3170 3171 3169 3168 3167 3166 3164 3161
3125 3128 3131 3135 3138 3140 3143 3146 3150 3152 3154 3156 3157 3159 3161 3164 3165 3167 3168 3169 3170 3171 3172 3172 3172 3172 3172 3172 3171 3170 3169 3169 3169 3168 3169 3168 3167 3166 3166 3164 3163 3162 3158
3119 3123 3127 3130 3134 3137 3140 3144 3146 3149 3151 3152 3154 3156 3159 3161 3162 3163 3164 3165 3167 3168 3169 3169 3169 3169 3168 3168 3168 3167 3166 3165 3166 3166 3165 3164 3164 3162 3162 3161 3159 3157 3154
3114 3118 3122 3126 3130 3133 3136 3139 3142 3144 3147 3149 3151 3153 3155 3157 3159 3160 3162 3163 3164 3165 3165 3165 3166 3166 3166 3165 3165 3164 3163 3163 3162 3161 3160 3159 3158 3156 3155 3153 3151 3150 3147
3109 3113 3117 3121 3124 3127 3131 3134 3136 3139 3142 3144 3147 3149 3151 3153 3155 3157 3158 3159 3161 3161 3162 3162 3163 3162 3162 3161 3161 3160 3160 3159 3158 3157 3156 3155 3154 3151 3149 3147 3146 3144 3143
3103 3107 3111 3114 3118 3121 3124 3128 3132 3135 3137 3139 3142 3144 3147 3149 3151 3152 3154 3155 3156 3157 3158 3158 3158 3158 3158 3158 3157 3157 3156 3155 3154 3153 3152 3150 3148 3146 3142 3139 3137 3134 3136
3097 3102 3106 3109 3113 3116 3118 3121 3126 3129 3132 3134 3137 3139 3142 3144 3146 3148 3149 3150 3151 3152 3153 3153 3154 3154 3153 3153 3153 3153 3152 3151 3150 3148 3147 3145 3142 3139 3136 3132 3127 3123 3122
3090 3095 3100 3103 3106 3110 3113 3115 3119 3123 3125 3127 3130 3133 3135 3138 3141 3143 3144 3145 3146 3147 3147 3148 3149 3149 3148 3148 3148 3148 3147 3147 3145 3143 3141 3139 3136 3133 3129 3124 3118 3112 3104
3083 3086 3091 3097 3100 3103 3106 3108 3112 3116 3119 3121 3124 3126 3129 3132 3135 3137 3139 3140 3141 3142 3143 3143 3144 3144 3145 3144 3144 3143 3142 3141 3140 3138 3136 3133 3130 3126 3122 3117 3112 3104 3096
3078 3081 3083 3088 3092 3096 3099 3102 3105 3108 3112 3114 3116 3119 3123 3126 3129 3131 3133 3134 3136 3137 3138 3139 3140 3140 3139 3139 3138 3138 3137 3135 3134 3132 3129 3127 3123 3119 3115 3110 3104 3097 3089
3072 3075 3078 3081 3084 3089 3092 3096 3099 3102 3105 3106 3110 3113 3116 3119 3122 3124 3126 3129 3130 3131 3132 3132 3134 3133 3134 3133 3134 3133 3131 3129 3127 3126 3124 3120 3116 3112 3107 3102 3097 3091 3084
3065 3068 3070 3073 3078 3081 3084 3087 3091 3095 3098 3100 3103 3106 3110 3112 3116 3118 3120 3123 3124 3125 3126 3126 3128 3127 3127 3126 3127 3126 3125 3124 3122 3120 3117 3113 3108 3104 3099 3094 3089 3083 3078
3059 3062 3065 3067 3071 3073 3076 3078 3082 3086 3089 3092 3096 3099 3102 3105 3110 3110 3114 3116 3118 3119 3121 3121 3119 3119 3121 3120 3119 3120 3119 3117 3115 3113 3109 3105 3100 3096 3090 3085 3080 3075 3069
3052 3056 3059 3063 3065 3067 3069 3071 3073 3077 3082 3085 3089 3091 3095 3098 3100 3105 3106 3108 3110 3110 3113 3113 3114 3114 3113 3113 3112 3112 3111 3110 3108 3105 3101 3096 3091 3085 3080 3075 3071 3066 3061
3047 3050 3053 3056 3058 3059 3061 3064 3067 3071 3075 3078 3081 3084 3087 3090 3095 3097 3098 3101 3103 3105 3106 3106 3108 3107 3107 3106 3106 3105 3104 3102 3099 3095 3091 3087 3082 3077 3072 3068 3062 3056 3050
3042 3044 3047 3049 3051 3052 3054 3057 3060 3063 3066 3069 3072 3076 3079 3082 3086 3089 3092 3094 3096 3098 3099 3099 3099 3100 3100 3100 3099 3097 3094 3092 3089 3086 3082 3079 3074 3069 3065 3061 3056 3051 3045
3035 3040 3042 3044 3044 3045 3047 3048 3051 3055 3058 3061 3065 3068 3072 3075 3078 3081 3084 3087 3089 3090 3091 3092 3093 3093 3092 3092 3091 3089 3086 3083 3080 3077 3073 3070 3067 3062 3057 3052 3047 3043 3037
3026 3030 3032 3033 3036 3038 3040 3041 3044 3048 3052 3055 3058 3061 3064 3068 3071 3075 3078 3080 3081 3083 3084 3085 3085 3085 3085 3084 3082 3081 3077 3074 3072 3069 3064 3060 3056 3051 3047 3042 3037 3032 3026
3021 3023 3025 3027 3028 3029 3031 3034 3038 3042 3046 3048 3052 3055 3058 3062 3065 3068 3070 3072 3073 3075 3077 3077 3078 3077 3077 3076 3074 3071 3069 3066 3064 3060 3056 3051 3047 3042 3038 3031 3025 3019 3013
3010 3013 3017 3019 3021 3022 3025 3028 3031 3034 3038 3041 3045 3048 3051 3055 3057 3060 3062 3064 3066 3067 3069 3070 3070 3070 3069 3068 3066 3063 3060 3057 3054 3051 3048 3044 3039 3034 3028 3021 3015 3007 3000
2999 3003 3006 3010 3012 3014 3017 3021 3024 3027 3030 3033 3037 3040 3043 3047 3050 3053 3056 3058 3059 3061 3062 3062 3062 3063 3061 3060 3058 3055 3052 3048 3045 3042 3038 3033 3028 3023 3018 3011 3004 2997 2989
2990 2993 2997 3000 3004 3007 3010 3012 3015 3018 3021 3025 3029 3032 3036 3040 3043 3046 3048 3051 3053 3053 3053 3054 3055 3054 3053 3052 3050 3047 3045 3041 3036 3033 3028 3023 3019 3014 3008 3001 2993 2986 2979
2982 2985 2989 2992 2995 2998 3001 3004 3006 3010 3014 3019 3023 3027 3031 3034 3037 3040 3042 3044 3045 3046 3047 3048 3048 3047 3046 3044 3041 3038 3036 3032 3028 3026 3022 3016 3011 3005 2998 2990 2985 2978 2970
2972 2976 2979 2983 2986 2989 2992 2995 2999 3003 3008 3012 3017 3020 3024 3027 3031 3033 3035 3036 3038 3040 3040 3040 3041 3041 3039 3037 3033 3030 3028 3025 3021 3018 3013 3007 3002 2996 2991 2985 2978 2971 2964
2962 2966 2969 2973 2976 2979 2983 2987 2991 2996 3001 3006 3010 3014 3018 3021 3024 3026 3028 3030 3031 3031 3032 3033 3034 3033 3031 3029 3026 3023 3021 3017 3012 3008 3003 2998 2992 2987 2981 2974 2970 2963 2957